Regional Weather Roundup
Issued by NWS State College, PA

Home | Current Version | Previous Version | Graphics & Text | Print | Product List | Glossary On
Versions: 1 2 3 4 5 6 7 8 9 10 11 12 13 14 15 16 17 18 19 20 21 22 23 24 25 26 27 28 29 30 31 32 33 34 35 36 37 38 39 40 41 42 43 44 45 46 47 48 49 50
000
ASUS41 KCTP 212310
RWRCTP

REGIONAL WEATHER ROUNDUP
NATIONAL WEATHER SERVICE STATE COLLEGE PA
700 PM EDT WED JUN 21 2017

Note: "fair" indicates few or no clouds below 12,000 feet with no
significant weather and/or obstructions to visibility.

* = STATION THAT DOES NOT REPORT PRECIPITATION /E.G. RAIN...SNOW...ETC/
    THUNDER OR FOG.

PAZ002>004-007>009-013>016-020>023-029>032-220000-
WESTERN PENNSYLVANIA

CITY           SKY/WX    TMP DP  RH WIND       PRES   REMARKS
ERIE           SUNNY     70  54  56 VRB6      29.99F
MEADVILLE      SUNNY     70  50  49 NW7       30.01R
FRANKLIN*      SUNNY     72  54  53 N5        30.00R
NEW CASTLE     FAIR      76  58  53 N7        29.98F
BEAVER COUNTY  SUNNY     77  59  53 CALM      29.98F
BUTLER*        SUNNY     77  61  57 W8        29.98S
PITTSBURGH INT PTSUNNY   79  63  57 W5        29.97S
PITTSBURGH     MOSUNNY   77  60  55 NW5       29.97S
INDIANA*       SUNNY     77  63  61 W7        30.00F
LATROBE        MOSUNNY   77  64  65 W7        29.99R
WASHINGTON CO* MOSUNNY   79  61  53 W3        30.00S
$$

PAZ004>006-010>012-017>019-024>028-033>037-041-042-045-046-049>053-220000-
CENTRAL PENNSYLVANIA

CITY           SKY/WX    TMP DP  RH WIND       PRES   REMARKS
BRADFORD       SUNNY     69  52  54 NW8       30.01R
DUBOIS         SUNNY     73  51  46 NW9       29.99R
CLEARFIELD     MOSUNNY   77  52  41 W13G21    29.99R
JOHNSTOWN      MOSUNNY   72  62  71 W8        30.02S
ALTOONA        SUNNY     76  62  62 NW8       29.98S
STATE COLLEGE  MOSUNNY   77  54  44 NW8       29.96S
WILLIAMSPORT   MOSUNNY   82  54  37 W8        29.90R
SELINSGROVE    SUNNY     80  61  52 NW5       29.91S
FT INDIANTOWN  SUNNY     77  64  63 SW9       29.92S
CAPITAL CITY   MOSUNNY   77  65  66 W12       29.93S
HARRISBURG     MOSUNNY   78  65  63 SW5       29.92F
YORK           CLOUDY    73  66  78 CALM      29.95F
$$

PAZ038>040-043-044-047-048-054-055-060>062-067>071-220000-
EASTERN PENNSYLVANIA

CITY           SKY/WX    TMP DP  RH WIND       PRES   REMARKS
SCRANTON       PTSUNNY   78  56  46 NW9       29.92R
MOUNT POCONO   CLOUDY    71  56  58 NW9       29.96R
ALLENTOWN      SUNNY     79  61  53 SW10      29.91R
QUAKERTOWN*    CLOUDY    72  64  78 W3        29.94R
READING        MOSUNNY   78  65  63 W8        29.91F
LANCASTER      CLOUDY    74  66  76 SW9       29.93F
COATESVILLE    CLOUDY    68  66  94 SW5       29.96S
POTTSTOWN      PTSUNNY   73  64  73 CALM      29.94F
BLUE BELL      CLOUDY    68  64  88 CALM      29.94F
DOYLESTOWN     MOSUNNY   73  62  68 SW9       29.93R
WILLOW GROVE   NOT AVBL
NORTH PHILA    CLOUDY    73  65  75 W3        29.93R
PHILADELPHIA   LGT RAIN  72  64  76 W7        29.92S
$$




USA.gov is the U.S. government's official web portal to all federal, state and local government web resources and services.